Tracking 20621 objects as of 31-Mar-2020
HD Live streaming from Space Station
objects crossing your sky now

BRAZILSAT 1

Track BRAZILSAT 1 now!
BRAZILSAT 1 is classified as:


NORAD ID: 15561
Int'l Code: 1985-015B
Perigee: 35,962.1 km
Apogee: 36,031.4 km
Inclination: 15.2 °
Period: 1,446.5 minutes
Semi major axis: 42367 km
RCS: 2.7147 m2 (large)
Launch date: February 8, 1985
Source: Brazil (BRAZ)
Launch site: FRENCH GUIANA (FRGUI)
aabbcc
Your satellite tracking list
Your tracking list is empty




NASA's NSSDC Master Catalog

Two Line Element Set (TLE):
1 15561U 85015B   20090.07202042 -.00000281 +00000-0 +00000-0 0  9997
2 15561 015.2415 003.1103 0008182 339.4043 195.5054 00.99552059023740
Source of the keplerian elements: AFSPC